�v������,���r���O(���x),�����t���O,���r���O(���x),�����t���O,��1(���x),�����t���O,�������x,�����t���O,�C�ۑ�(���x),�����t���O,�C�ۑ�(���x),�����t���O
5/1/2004 0:00,24.5,0,55.4,0,25.1,0,17.4,0,19.2,0,59.8,0
5/1/2004 0:00,24.4,0,55.1,0,25.1,0,17.5,0,19,0,60.8,0
5/1/2004 0:15,24.3,0,55,0,25.2,0,17.6,0,18.8,0,61.8,0
5/1/2004 0:30,24.3,0,54.9,0,25.2,0,17.7,0,18.7,0,62.8,0
5/1/2004 0:45,24.2,0,54.9,0,25.3,0,17.7,0,18.5,0,63.8,0
5/1/2004 1:00,24.1,0,54.8,0,25.3,0,17.8,0,18.6,0,63.5,0
5/1/2004 1:15,24.1,0,54.9,0,25.3,0,17.9,0,18.7,0,63.3,0
5/1/2004 1:30,24,0,54.9,0,25.2,0,17.9,0,18.8,0,63,0
5/1/2004 1:45,23.9,0,54.9,0,25.2,0,18,0,18.9,0,62.8,0
5/1/2004 2:00,23.8,0,54.9,0,25.2,0,18.1,0,19,0,60,0
5/1/2004 2:15,23.8,0,54.8,0,25.1,0,18.2,0,19.1,0,57.3,0
5/1/2004 2:30,23.7,0,54.9,0,25.1,0,18.2,0,19.3,0,54.5,0
5/1/2004 2:45,23.7,0,54.9,0,25.1,0,18.3,0,19.4,0,51.8,0
5/1/2004 3:00,23.6,0,54.8,0,25.1,0,18.3,0,19.4,0,52.3,0
5/1/2004 3:15,23.5,0,54.9,0,25,0,18.4,0,19.5,0,52.8,0
5/1/2004 3:30,23.5,0,54.8,0,25,0,18.5,0,19.5,0,53.3,0
5/1/2004 3:45,23.4,0,54.8,0,25,0,18.5,0,19.6,0,53.8,0
5/1/2004 4:00,23.4,0,54.8,0,24.9,0,18.6,0,19.4,0,55.8,0
5/1/2004 4:15,23.3,0,54.9,0,24.8,0,18.6,0,19.1,0,57.8,0
5/1/2004 4:30,23.3,0,54.8,0,24.8,0,18.7,0,18.9,0,59.8,0
5/1/2004 4:45,23.2,0,54.8,0,24.8,0,18.7,0,18.7,0,61.8,0
5/1/2004 5:00,23.1,0,54.8,0,24.7,0,18.8,0,18.7,0,61.8,0
5/1/2004 5:15,23.1,0,54.8,0,24.6,0,18.8,0,18.7,0,61.8,0
5/1/2004 5:30,23,0,54.9,0,24.6,0,18.9,0,18.8,0,61.8,0
5/1/2004 5:45,23,0,54.9,0,24.6,0,18.9,0,18.8,0,61.8,0
5/1/2004 6:00,22.9,0,54.8,0,24.6,0,19,0,19,0,60.3,0
5/1/2004 6:15,22.9,0,54.9,0,24.5,0,19,0,19.2,0,58.8,0
5/1/2004 6:30,22.9,0,54.8,0,24.5,0,19.1,0,19.4,0,57.3,0
5/1/2004 6:45,22.8,0,54.8,0,24.5,0,19.1,0,19.6,0,55.8,0
5/1/2004 7:00,22.9,0,54.9,0,24.4,0,19.1,0,19.9,0,54,0
5/1/2004 7:15,22.9,0,55.3,0,24.4,0,19.2,0,20.2,0,52.3,0
5/1/2004 7:30,22.9,0,55.8,0,24.4,0,19.2,0,20.5,0,50.5,0
5/1/2004 7:45,23,0,56,0,24.5,0,19.3,0,20.8,0,48.8,0
5/1/2004 8:00,23.1,0,56.3,0,24.8,0,19.3,0,21.2,0,45.5,0
5/1/2004 8:15,23.2,0,56.8,0,24.7,0,17.3,0,21.6,0,42.3,0
5/1/2004 8:30,23.3,0,56.5,0,24.7,0,17.4,0,22,0,39,0
5/1/2004 8:45,23.4,0,57.3,0,24.7,0,17.5,0,22.4,0,35.8,0
5/1/2004 9:00,23.6,0,56.1,0,24.8,0,17.5,0,22.7,0,34.3,0
5/1/2004 9:15,23.7,0,54.7,0,24.8,0,17.6,0,22.9,0,32.8,0
5/1/2004 9:30,23.8,0,54.5,0,24.9,0,17.7,0,23.2,0,31.3,0
5/1/2004 9:45,23.9,0,47.3,0,25.1,0,17.7,0,23.5,0,29.8,0
5/1/2004 10:00,24.1,0,46.2,0,25.2,0,17.8,0,23.7,0,29,0
5/1/2004 10:15,24.1,0,44.5,0,25.3,0,17.9,0,23.9,0,28.3,0
5/1/2004 10:30,24.2,0,42.9,0,25.5,0,17.9,0,24.2,0,27.5,0
5/1/2004 10:45,24.4,0,41.1,0,25.6,0,18,0,24.4,0,26.8,0
5/1/2004 11:00,24.5,0,38.7,0,25.7,0,18,0,24.3,0,27.5,0
5/1/2004 11:15,24.6,0,36.9,0,25.8,0,18.1,0,24.2,0,28.3,0
5/1/2004 11:30,24.8,0,37.9,0,25.8,0,18.2,0,24.1,0,29,0
5/1/2004 11:45,24.9,0,39.4,0,25.9,0,18.2,0,24,0,29.8,0
5/1/2004 12:00,25.1,0,37.1,0,26,0,17.8,0,24,0,30.3,0
5/1/2004 12:15,25.3,0,38.9,0,26.1,0,17.8,0,24,0,30.8,0
5/1/2004 12:30,25.4,0,40.8,0,26.3,0,17.9,0,24.1,0,31.3,0
5/1/2004 12:45,25.6,0,40.6,0,26.5,0,17.6,0,24.1,0,31.8,0
5/1/2004 13:00,25.8,0,39.1,0,26.6,0,17.6,0,23.8,0,32.3,0
5/1/2004 13:15,26,0,38.6,0,26.6,0,17.7,0,23.4,0,32.8,0
5/1/2004 13:30,26.3,0,38.2,0,26.8,0,17.8,0,23.1,0,33.3,0
5/1/2004 13:45,26.4,0,39.2,0,26.8,0,17.9,0,22.8,0,33.8,0
5/1/2004 14:00,26.5,0,39.1,0,26.7,0,17.9,0,22.2,0,35.3,0
5/1/2004 14:15,26.6,0,39.5,0,26.8,0,18,0,21.5,0,36.8,0
5/1/2004 14:30,26.6,0,39.5,0,26.8,0,18.1,0,20.9,0,38.3,0
5/1/2004 14:45,26.7,0,39.6,0,26.7,0,18.1,0,20.3,0,39.8,0
5/1/2004 15:00,26.7,0,39.6,0,26.5,0,18.2,0,20,0,41.3,0
5/1/2004 15:15,26.7,0,40,0,26.4,0,18.3,0,19.7,0,42.8,0
5/1/2004 15:30,26.7,0,39.6,0,26.3,0,18.3,0,19.4,0,44.3,0
5/1/2004 15:45,26.7,0,39.8,0,26.1,0,18.4,0,19.1,0,45.8,0
5/1/2004 16:00,26.7,0,39.6,0,26,0,18.5,0,18.7,0,47.5,0
5/1/2004 16:15,26.6,0,39.5,0,25.9,0,18.6,0,18.2,0,49.3,0
5/1/2004 16:30,26.5,0,39.4,0,25.9,0,18.1,0,17.8,0,51,0
5/1/2004 16:45,26.3,0,39.5,0,25.8,0,18.1,0,17.4,0,52.8,0
5/1/2004 17:00,26.1,0,39.4,0,25.7,0,18.2,0,16.7,0,55,0
5/1/2004 17:15,25.8,0,39.1,0,25.4,0,18.3,0,16,0,57.3,0
5/1/2004 17:30,25.6,0,39.6,0,25.1,0,18.3,0,15.4,0,59.5,0
5/1/2004 17:45,25.2,0,39.6,0,24.8,0,18.4,0,14.7,0,61.8,0
5/1/2004 18:00,24.9,0,39.6,0,24.4,0,18.5,0,14.3,0,63.1,0
5/1/2004 18:15,24.7,0,39.9,0,23.7,0,18.5,0,13.8,0,64.3,0
5/1/2004 18:30,24.4,0,39.8,0,23.4,0,18.6,0,13.4,0,65.6,0
5/1/2004 18:45,24.1,0,40,0,23.2,0,18.7,0,13,0,66.8,0
5/1/2004 19:00,23.7,0,40.1,0,23.2,0,18.7,0,12.8,0,66.8,0
5/1/2004 19:15,23.5,0,40.9,0,22.8,0,18.1,0,12.7,0,66.8,0
5/1/2004 19:30,23.6,0,42.9,0,23,0,17.1,0,12.5,0,66.8,0
5/1/2004 19:45,23.6,0,44,0,23.2,0,17.1,0,12.4,0,66.8,0
5/1/2004 20:00,23.6,0,47,0,23.4,0,17,0,12.2,0,66.6,0
5/1/2004 20:15,23.6,0,47.4,0,23.5,0,17.1,0,12.1,0,66.3,0
5/1/2004 20:30,23.7,0,50,0,23.6,0,17.1,0,11.9,0,66.1,0
5/1/2004 20:45,23.6,0,48.8,0,23.7,0,17.2,0,11.8,0,65.8,0
5/1/2004 21:00,23.6,0,48.4,0,23.7,0,17.3,0,11.7,0,65.6,0
5/1/2004 21:15,23.6,0,48.1,0,23.7,0,17.3,0,11.7,0,65.3,0
5/1/2004 21:30,23.5,0,48,0,23.7,0,17.4,0,11.6,0,65.1,0
5/1/2004 21:45,23.5,0,47.8,0,23.7,0,17.5,0,11.6,0,64.8,0
5/1/2004 22:00,23.4,0,49.1,0,23.7,0,17.5,0,11.6,0,64.6,0
5/1/2004 22:15,23.3,0,49.9,0,23.7,0,17.6,0,11.5,0,64.3,0
5/1/2004 22:30,23.2,0,51,0,23.6,0,17.7,0,11.5,0,64.1,0
5/1/2004 22:45,23.1,0,52.4,0,23.6,0,17.7,0,11.5,0,63.8,0
5/1/2004 23:00,23,0,53.7,0,23.5,0,17.8,0,11.4,0,63.3,0
5/1/2004 23:15,22.9,0,54.4,0,23.5,0,17.9,0,11.4,0,62.8,0
5/1/2004 23:30,22.8,0,53.6,0,23.4,0,17.9,0,11.3,0,62.3,0
5/1/2004 23:45,22.8,0,54.3,0,23.3,0,18,0,11.3,0,61.8,0
5/2/2004 0:00,22.7,0,55.2,0,23.3,0,18,0,11.4,0,60.5,0
5/2/2004 0:15,22.6,0,55.4,0,23.2,0,18.1,0,11.5,0,59.3,0
5/2/2004 0:30,22.6,0,54.7,0,23.1,0,18.1,0,11.6,0,58,0
5/2/2004 0:45,22.6,0,54.8,0,23.1,0,18.2,0,11.7,0,56.8,0
5/2/2004 1:00,22.5,0,54.5,0,23,0,18.2,0,11.6,0,55.8,0
5/2/2004 1:15,22.4,0,54.9,0,22.9,0,18.2,0,11.5,0,54.8,0
5/2/2004 1:30,22.4,0,55.2,0,22.9,0,17.9,0,11.5,0,53.8,0
5/2/2004 1:45,22.3,0,55.3,0,22.8,0,17.9,0,11.4,0,52.8,0
5/2/2004 2:00,22.2,0,55.6,0,22.9,0,18,0,11.4,0,50.5,0
5/2/2004 2:15,22.2,0,55.4,0,22.8,0,18,0,11.4,0,48.3,0
5/2/2004 2:30,22.1,0,55.7,0,22.8,0,18,0,11.4,0,46,0
5/2/2004 2:45,22,0,54.6,0,22.8,0,18.1,0,11.4,0,43.8,0
5/2/2004 3:00,22,0,55.2,0,22.8,0,17.8,0,11.3,0,43.8,0
5/2/2004 3:15,21.9,0,54.5,0,22.8,0,17.8,0,11.2,0,43.8,0
5/2/2004 3:30,21.8,0,55.3,0,22.8,0,17.9,0,11.1,0,43.8,0
5/2/2004 3:45,21.7,0,53.9,0,22.7,0,17.9,0,11,0,43.8,0
5/2/2004 4:00,21.5,0,53.4,0,22.6,0,17.9,0,11,0,44.8,0
5/2/2004 4:15,21.4,0,52.8,0,22.4,0,17.9,0,11,0,45.8,0
5/2/2004 4:30,21.2,0,52.7,0,22.3,0,18,0,11,0,46.8,0
5/2/2004 4:45,21.1,0,52.3,0,22.1,0,18,0,11,0,47.8,0
5/2/2004 5:00,20.9,0,52.4,0,22,0,18,0,10.9,0,48.8,0
5/2/2004 5:15,20.8,0,52.1,0,21.8,0,18.1,0,10.9,0,49.8,0
5/2/2004 5:30,20.7,0,52.3,0,21.7,0,18.1,0,10.8,0,50.8,0
5/2/2004 5:45,20.5,0,52.2,0,21.6,0,18.1,0,10.8,0,51.8,0
5/2/2004 6:00,20.4,0,52.4,0,21.5,0,18.2,0,10.8,0,52.3,0
5/2/2004 6:15,20.3,0,52.7,0,21.4,0,17.7,0,10.9,0,52.8,0
5/2/2004 6:30,20.2,0,52.6,0,21.3,0,17.7,0,10.9,0,53.3,0
5/2/2004 6:45,20.2,0,52.9,0,21.2,0,17.7,0,11,0,53.8,0
5/2/2004 7:00,20.1,0,54.4,0,21.1,0,17.8,0,11,0,55,0
5/2/2004 7:15,20.1,0,55,0,21.1,0,17.8,0,11,0,56.3,0
5/2/2004 7:30,20.1,0,54.8,0,21,0,17.8,0,11.1,0,57.5,0
5/2/2004 7:45,20.1,0,54.7,0,21.2,0,17.8,0,11.1,0,58.8,0
5/2/2004 8:00,20.1,0,55.2,0,21.3,0,17.9,0,11.3,0,58.3,0
5/2/2004 8:15,20.1,0,54.8,0,21.5,0,17.9,0,11.4,0,57.8,0
5/2/2004 8:30,20.1,0,55.4,0,21.5,0,17.9,0,11.6,0,57.3,0
5/2/2004 8:45,20.3,0,58.8,0,21.4,0,17.9,0,11.8,0,56.8,0
5/2/2004 9:00,20.5,0,58.3,0,21.4,0,17.9,0,12,0,56.5,0
5/2/2004 9:15,20.6,0,55.3,0,21.4,0,18,0,12.2,0,56.3,0
5/2/2004 9:30,20.6,0,54.5,0,21.5,0,18,0,12.5,0,56,0
5/2/2004 9:45,20.6,0,54.4,0,21.5,0,18,0,12.7,0,55.8,0
5/2/2004 10:00,20.6,0,53.8,0,21.5,0,18,0,12.7,0,55,0
5/2/2004 10:15,20.6,0,53.6,0,21.6,0,18,0,12.8,0,54.3,0
5/2/2004 10:30,20.6,0,53.4,0,21.6,0,18.1,0,12.8,0,53.5,0
5/2/2004 10:45,20.7,0,53,0,21.7,0,18.1,0,12.9,0,52.8,0
5/2/2004 11:00,20.7,0,52.9,0,21.8,0,18.1,0,13.3,0,51.8,0
5/2/2004 11:15,20.7,0,52.6,0,21.9,0,18.1,0,13.7,0,50.8,0
5/2/2004 11:30,20.8,0,52.4,0,22,0,18.2,0,14.2,0,49.8,0
5/2/2004 11:45,20.9,0,51.9,0,22.1,0,18.2,0,14.6,0,48.8,0
5/2/2004 12:00,21,0,51.4,0,22.2,0,18.2,0,14.7,0,48.5,0
5/2/2004 12:15,21.1,0,51.2,0,22.3,0,18.2,0,14.8,0,48.3,0
5/2/2004 12:30,21.2,0,50.7,0,22.5,0,18.2,0,14.9,0,48,0
5/2/2004 12:45,21.3,0,50.6,0,22.6,0,18.2,0,15,0,47.8,0
5/2/2004 13:00,21.4,0,50.2,0,22.8,0,18.3,0,15.2,0,47.3,0
5/2/2004 13:15,21.5,0,50,0,22.9,0,18.3,0,15.4,0,46.8,0
5/2/2004 13:30,21.7,0,49.4,0,23.1,0,18.3,0,15.6,0,46.3,0
5/2/2004 13:45,21.8,0,49.2,0,23.2,0,18.3,0,15.8,0,45.8,0
5/2/2004 14:00,21.9,0,48.8,0,23.4,0,18.3,0,15.7,0,46.3,0
5/2/2004 14:15,22.1,0,49.1,0,23.6,0,17.4,0,15.6,0,46.8,0
5/2/2004 14:30,22.2,0,48.7,0,23.7,0,17.4,0,15.6,0,47.3,0
5/2/2004 14:45,22.3,0,49,0,23.9,0,17.5,0,15.5,0,47.8,0
5/2/2004 15:00,22.4,0,49.1,0,23.9,0,17.5,0,15.5,0,48.5,0
5/2/2004 15:15,22.5,0,49.1,0,24,0,17.6,0,15.6,0,49.3,0
5/2/2004 15:30,22.7,0,50.9,0,24.1,0,17.6,0,15.6,0,50,0
5/2/2004 15:45,22.8,0,50.6,0,24.2,0,17.6,0,15.7,0,50.8,0
5/2/2004 16:00,22.8,0,50,0,24.2,0,17.7,0,15.4,0,52,0
5/2/2004 16:15,22.9,0,49.9,0,24.3,0,17.4,0,15.1,0,53.3,0
5/2/2004 16:30,23,0,49,0,24.5,0,17.4,0,14.8,0,54.5,0
5/2/2004 16:45,23,0,48.5,0,24.7,0,17.5,0,14.5,0,55.8,0
5/2/2004 17:00,22.9,0,48.7,0,24.6,0,17.3,0,14.4,0,56.5,0
5/2/2004 17:15,22.9,0,49.6,0,24.6,0,17.4,0,14.2,0,57.3,0
5/2/2004 17:30,22.8,0,47.8,0,24.4,0,17.4,0,14.1,0,58,0
5/2/2004 17:45,22.6,0,48.4,0,24.2,0,17.4,0,14,0,58.8,0
5/2/2004 18:00,22.4,0,48.4,0,24,0,17.5,0,13.9,0,59.3,0
5/2/2004 18:15,22.2,0,48.4,0,23.9,0,17.5,0,13.7,0,59.8,0
5/2/2004 18:30,22,0,48.6,0,23.8,0,17.6,0,13.6,0,60.3,0
5/2/2004 18:45,21.9,0,48.6,0,23.6,0,17.6,0,13.5,0,60.8,0
5/2/2004 19:00,21.8,0,50.5,0,23.5,0,17.6,0,13.4,0,61,0
5/2/2004 19:15,21.8,0,50.8,0,23.5,0,17.7,0,13.2,0,61.3,0
5/2/2004 19:30,21.8,0,53.1,0,23.4,0,17.7,0,13.1,0,61.5,0
5/2/2004 19:45,22.1,0,55.5,0,23.4,0,17.8,0,13,0,61.8,0
5/2/2004 20:00,22.2,0,55.5,0,23.3,0,17.8,0,13,0,61.8,0
5/2/2004 20:15,22.3,0,56.1,0,23.3,0,17.9,0,13.1,0,61.8,0
5/2/2004 20:30,22.3,0,55.5,0,23.2,0,17.9,0,13.1,0,61.8,0
5/2/2004 20:45,22.4,0,54.3,0,23.2,0,17.2,0,13.2,0,61.8,0
5/2/2004 21:00,22.4,0,54.6,0,23.1,0,17.3,0,13.2,0,62,0
5/2/2004 21:15,22.4,0,55.6,0,23.1,0,17.3,0,13.3,0,62.3,0
5/2/2004 21:30,22.4,0,54.5,0,23.1,0,17.4,0,13.3,0,62.5,0
5/2/2004 21:45,22.4,0,53.9,0,23.1,0,17.4,0,13.4,0,62.8,0
5/2/2004 22:00,22.3,0,53.4,0,23.1,0,17.5,0,13.4,0,62.5,0
5/2/2004 22:15,22.3,0,53.7,0,23,0,17.5,0,13.3,0,62.3,0
5/2/2004 22:30,22.3,0,55,0,23,0,17.5,0,13.3,0,62,0
5/2/2004 22:45,22.2,0,56.1,0,23,0,17.6,0,13.3,0,61.8,0
5/2/2004 23:00,22.1,0,56.4,0,22.9,0,17.6,0,13.3,0,62,0
5/2/2004 23:15,22,0,57.3,0,22.9,0,17.4,0,13.2,0,62.3,0
5/2/2004 23:30,22.1,0,56.4,0,22.8,0,17.5,0,13.2,0,62.5,0
5/2/2004 23:45,22,0,56.9,0,22.8,0,17.5,0,13.2,0,62.8,0
5/3/2004 0:00,21.9,0,56.6,0,22.7,0,17.6,0,12.9,0,64.3,0
5/3/2004 0:15,21.9,0,57,0,22.6,0,17.6,0,12.6,0,65.8,0
5/3/2004 0:30,21.9,0,57.8,0,22.6,0,17.6,0,12.4,0,67.3,0
5/3/2004 0:45,21.8,0,58.2,0,22.6,0,17.7,0,12.1,0,68.8,0
5/3/2004 1:00,21.8,0,57.5,0,22.5,0,17.7,0,11.9,0,70.6,0
5/3/2004 1:15,21.7,0,56.9,0,22.4,0,17.7,0,11.7,0,72.3,0
5/3/2004 1:30,21.6,0,56.4,0,22.4,0,17.8,0,11.6,0,74.1,0
5/3/2004 1:45,21.5,0,56,0,22.3,0,17.8,0,11.4,0,75.8,0
5/3/2004 2:00,21.5,0,55.6,0,22.2,0,17.8,0,11.3,0,76.3,0
5/3/2004 2:15,21.4,0,55.3,0,22.2,0,17.9,0,11.2,0,76.8,0
5/3/2004 2:30,21.2,0,55.2,0,22.1,0,17.9,0,11.1,0,77.3,0
5/3/2004 2:45,21.1,0,54.9,0,22,0,17.9,0,11,0,77.8,0
5/3/2004 3:00,21,0,54.7,0,22,0,17.9,0,11,0,79.1,0
5/3/2004 3:15,20.9,0,54.5,0,21.9,0,18,0,10.9,0,80.3,0
5/3/2004 3:30,20.8,0,54.5,0,21.8,0,18,0,10.9,0,81.6,0
5/3/2004 3:45,20.7,0,54.5,0,21.7,0,18,0,10.9,0,82.8,0
5/3/2004 4:00,20.6,0,54.4,0,21.6,0,18,0,10.8,0,83.1,0
5/3/2004 4:15,20.5,0,54.6,0,21.5,0,17.7,0,10.7,0,83.3,0
5/3/2004 4:30,20.4,0,54.6,0,21.5,0,17.7,0,10.7,0,83.6,0
5/3/2004 4:45,20.3,0,54.6,0,21.4,0,17.7,0,10.6,0,83.8,0
5/3/2004 5:00,20.2,0,54.6,0,21.3,0,17.8,0,10.7,0,83.8,0
5/3/2004 5:15,20.1,0,54.6,0,21.2,0,17.8,0,10.7,0,83.8,0
5/3/2004 5:30,20,0,55.3,0,21.1,0,17.8,0,10.8,0,83.8,0
5/3/2004 5:45,19.9,0,56.4,0,21,0,17.8,0,10.9,0,83.8,0
5/3/2004 6:00,19.8,0,56.4,0,20.9,0,17.8,0,10.9,0,84.3,0
5/3/2004 6:15,19.8,0,56.4,0,20.8,0,17.3,0,10.9,0,84.8,0
5/3/2004 6:30,19.7,0,57.1,0,20.8,0,17.4,0,10.9,0,85.3,0
5/3/2004 6:45,19.7,0,58.1,0,20.8,0,17.3,0,10.9,0,85.8,0
5/3/2004 7:00,19.6,0,57,0,20.7,0,17.3,0,10.9,0,86.1,0
5/3/2004 7:15,19.6,0,56.8,0,20.6,0,17.4,0,11,0,86.3,0
5/3/2004 7:30,19.5,0,56.5,0,20.5,0,17.4,0,11,0,86.6,0
5/3/2004 7:45,19.5,0,56.3,0,20.4,0,17.4,0,11.1,0,86.8,0
5/3/2004 8:00,19.5,0,56,0,20.3,0,17.4,0,11.3,0,86.6,0
5/3/2004 8:15,19.4,0,55.9,0,20.2,0,17.5,0,11.5,0,86.3,0
5/3/2004 8:30,19.4,0,55.7,0,20.2,0,17.5,0,11.7,0,86.1,0
5/3/2004 8:45,19.4,0,55.8,0,20.1,0,17.5,0,11.9,0,85.8,0
5/3/2004 9:00,19.3,0,55.6,0,20,0,17.5,0,12,0,85.8,0
5/3/2004 9:15,19.3,0,55.7,0,20,0,17.5,0,12.1,0,85.8,0
5/3/2004 9:30,19.2,0,55.5,0,19.9,0,17.6,0,12.3,0,85.8,0
5/3/2004 9:45,19.2,0,55.5,0,19.9,0,17.6,0,12.4,0,85.8,0
5/3/2004 10:00,19.2,0,55.4,0,19.8,0,17.6,0,12.5,0,85.1,0
5/3/2004 10:15,19.2,0,55.4,0,19.8,0,17.6,0,12.7,0,84.3,0
5/3/2004 10:30,19.1,0,55.2,0,19.8,0,17.6,0,12.8,0,83.6,0
5/3/2004 10:45,19.1,0,55.2,0,19.7,0,17.6,0,13,0,82.8,0
5/3/2004 11:00,19.1,0,55.2,0,19.7,0,17.6,0,13.3,0,82.1,0
5/3/2004 11:15,19.1,0,55.2,0,19.7,0,17.6,0,13.7,0,81.3,0
5/3/2004 11:30,19.1,0,55,0,19.7,0,17.7,0,14,0,80.6,0
5/3/2004 11:45,19.1,0,54.9,0,19.7,0,17.7,0,14.4,0,79.8,0
5/3/2004 12:00,19.1,0,54.8,0,19.7,0,17.7,0,14.7,0,78.8,0
5/3/2004 12:15,19.1,0,54.7,0,19.7,0,17.7,0,14.9,0,77.8,0
5/3/2004 12:30,19.1,0,54.6,0,19.7,0,17.7,0,15.2,0,76.8,0
5/3/2004 12:45,19.1,0,54.6,0,19.8,0,17.7,0,15.5,0,75.8,0
5/3/2004 13:00,19.2,0,54.5,0,19.8,0,17.7,0,15.7,0,75.8,0
5/3/2004 13:15,19.2,0,54.5,0,19.9,0,17.7,0,16,0,75.8,0
5/3/2004 13:30,19.2,0,54.5,0,20,0,17.8,0,16.2,0,75.8,0
5/3/2004 13:45,19.3,0,54.5,0,20,0,17.8,0,16.5,0,75.8,0
5/3/2004 14:00,19.4,0,54.3,0,20.1,0,17.8,0,16.5,0,78.1,0
5/3/2004 14:15,19.4,0,54.4,0,20.2,0,17.8,0,16.5,0,80.3,0
5/3/2004 14:30,19.5,0,54.2,0,20.2,0,17.8,0,16.5,0,82.6,0
5/3/2004 14:45,19.5,0,54.1,0,20.2,0,17.8,0,16.5,0,84.8,0
5/3/2004 15:00,19.5,0,54,0,20.3,0,17.8,0,16.9,0,83.3,0
5/3/2004 15:15,19.6,0,54.1,0,20.4,0,17.9,0,17.3,0,81.8,0
5/3/2004 15:30,19.8,0,54,0,20.6,0,17.9,0,17.8,0,80.3,0
5/3/2004 15:45,19.9,0,54.1,0,20.7,0,17.9,0,18.2,0,78.8,0
5/3/2004 16:00,20.1,0,54,0,20.9,0,17.9,0,18.6,0,76.6,0
5/3/2004 16:15,20.3,0,53.8,0,21.1,0,17.9,0,18.9,0,74.3,0
5/3/2004 16:30,20.4,0,53.7,0,21.5,0,17.9,0,19.3,0,72.1,0
5/3/2004 16:45,20.6,0,53.4,0,21.7,0,18,0,19.7,0,69.8,0
5/3/2004 17:00,20.7,0,53.3,0,21.8,0,18,0,19.8,0,68.8,0
5/3/2004 17:15,20.7,0,53.1,0,21.7,0,18,0,19.8,0,67.8,0
5/3/2004 17:30,20.8,0,52.9,0,21.7,0,18,0,19.9,0,66.8,0
5/3/2004 17:45,20.9,0,52.9,0,21.7,0,18,0,20,0,65.8,0
5/3/2004 18:00,20.9,0,52.9,0,21.6,0,18,0,20,0,65.6,0
5/3/2004 18:15,20.9,0,52.9,0,21.6,0,18.1,0,20,0,65.3,0
5/3/2004 18:30,20.9,0,52.9,0,21.5,0,18.1,0,20,0,65.1,0
5/3/2004 18:45,20.9,0,53,0,21.5,0,18.1,0,20,0,64.8,0
5/3/2004 19:00,20.9,0,53.1,0,21.5,0,18.1,0,19.9,0,64.8,0
5/3/2004 19:15,20.9,0,53.1,0,21.4,0,18.1,0,19.9,0,64.8,0
5/3/2004 19:30,20.9,0,53.3,0,21.4,0,18.2,0,19.8,0,64.8,0
5/3/2004 19:45,20.9,0,53.5,0,21.4,0,18.2,0,19.8,0,64.8,0
5/3/2004 20:00,20.9,0,53.7,0,21.4,0,18.2,0,19.8,0,64.6,0
5/3/2004 20:15,20.8,0,53.7,0,21.4,0,18.2,0,19.7,0,64.3,0
5/3/2004 20:30,20.8,0,53.8,0,21.4,0,18.3,0,19.7,0,64.1,0
5/3/2004 20:45,20.8,0,54,0,21.4,0,18.3,0,19.7,0,63.8,0
5/3/2004 21:00,20.8,0,54.1,0,21.3,0,18.3,0,19.6,0,62.8,0
5/3/2004 21:15,20.8,0,54.1,0,21.3,0,18.3,0,19.5,0,61.8,0
5/3/2004 21:30,20.8,0,54.1,0,21.3,0,18.3,0,19.4,0,60.8,0
5/3/2004 21:45,20.8,0,54.1,0,21.3,0,18.4,0,19.3,0,59.8,0
5/3/2004 22:00,20.8,0,54.2,0,21.3,0,18.4,0,19.4,0,60.5,0
5/3/2004 22:15,20.8,0,54.1,0,21.3,0,18.4,0,19.4,0,61.3,0
5/3/2004 22:30,20.7,0,54.1,0,21.2,0,18.4,0,19.5,0,62,0
5/3/2004 22:45,20.7,0,54.2,0,21.2,0,18.4,0,19.6,0,62.8,0
5/3/2004 23:00,20.7,0,54.2,0,21.2,0,18.5,0,19.6,0,62.8,0
5/3/2004 23:15,20.7,0,54.4,0,21.2,0,18.5,0,19.6,0,62.8,0
5/3/2004 23:30,20.7,0,54.5,0,21.1,0,18.5,0,19.6,0,62.8,0
5/3/2004 23:45,20.7,0,54.6,0,21.1,0,18.5,0,19.6,0,62.8,0
5/4/2004 0:00,20.6,0,54.6,0,21.1,0,18.6,0,19.6,0,63.3,0
5/4/2004 0:15,20.6,0,54.7,0,21.1,0,18.6,0,19.6,0,63.8,0
5/4/2004 0:30,20.6,0,54.8,0,21.1,0,18.6,0,19.7,0,64.3,0
5/4/2004 0:45,20.6,0,58.1,0,21.1,0,18.6,0,19.7,0,64.8,0
5/4/2004 1:00,20.7,0,58.7,0,21.1,0,17.7,0,19.7,0,65.3,0
5/4/2004 1:15,20.8,0,58.3,0,21.1,0,17.7,0,19.6,0,65.8,0
5/4/2004 1:30,20.9,0,58.1,0,21.1,0,17.7,0,19.6,0,66.3,0
5/4/2004 1:45,21,0,57.7,0,21.1,0,17.8,0,19.6,0,66.8,0
5/4/2004 2:00,21.1,0,57.6,0,21.2,0,17.8,0,19.6,0,66.6,0
5/4/2004 2:15,21.1,0,57.3,0,21.2,0,17.5,0,19.6,0,66.3,0
5/4/2004 2:30,21.2,0,56.8,0,21.3,0,17.6,0,19.6,0,66.1,0
5/4/2004 2:45,21.2,0,56.5,0,21.3,0,17.6,0,19.6,0,65.8,0
5/4/2004 3:00,21.2,0,56.3,0,21.3,0,17.6,0,19.6,0,66.3,0
5/4/2004 3:15,21.2,0,56.3,0,21.3,0,17.7,0,19.6,0,66.8,0
5/4/2004 3:30,21.2,0,56.3,0,21.4,0,17.7,0,19.7,0,67.3,0
5/4/2004 3:45,21.2,0,56.5,0,21.4,0,17.7,0,19.7,0,67.8,0
5/4/2004 4:00,21.2,0,56.6,0,21.4,0,17.8,0,19.7,0,68.1,0
5/4/2004 4:15,21.2,0,56.9,0,21.5,0,17.8,0,19.7,0,68.3,0
5/4/2004 4:30,21.2,0,57.2,0,21.6,0,17.8,0,19.7,0,68.6,0
5/4/2004 4:45,21.2,0,57.4,0,21.6,0,17.9,0,19.7,0,68.8,0
5/4/2004 5:00,21.2,0,57.5,0,21.7,0,17.9,0,19.8,0,68.8,0
5/4/2004 5:15,21.2,0,57.7,0,21.7,0,18,0,19.8,0,68.8,0
5/4/2004 5:30,21.2,0,57.8,0,21.7,0,18,0,19.9,0,68.8,0
5/4/2004 5:45,21.2,0,58.1,0,21.7,0,18,0,20,0,68.8,0
5/4/2004 6:00,21.2,0,58.2,0,21.7,0,18.1,0,20,0,68.8,0
5/4/2004 6:15,21.2,0,58.2,0,21.7,0,18.1,0,20,0,68.8,0
5/4/2004 6:30,21.2,0,58.3,0,21.8,0,18.1,0,20,0,68.8,0
5/4/2004 6:45,21.2,0,58.5,0,21.8,0,18.2,0,20,0,68.8,0
5/4/2004 7:00,21.3,0,58.6,0,21.9,0,18.2,0,20.1,0,68.6,0
5/4/2004 7:15,21.3,0,58.7,0,21.9,0,18.2,0,20.2,0,68.3,0
5/4/2004 7:30,21.4,0,58.9,0,22,0,18.3,0,20.4,0,68.1,0
5/4/2004 7:45,21.5,0,58.9,0,22,0,18.3,0,20.5,0,67.8,0
5/4/2004 8:00,21.6,0,58.9,0,22.1,0,18.3,0,20.7,0,68.3,0
5/4/2004 8:15,21.7,0,59.5,0,22.1,0,18.4,0,20.9,0,68.8,0
5/4/2004 8:30,21.8,0,59.9,0,22.2,0,18.4,0,21.1,0,69.3,0
5/4/2004 8:45,21.9,0,60.5,0,22.2,0,18.5,0,21.3,0,69.8,0
5/4/2004 9:00,22.1,0,60.5,0,22.3,0,18.5,0,21.3,0,70.6,0
5/4/2004 9:15,22.3,0,60.6,0,22.4,0,18.5,0,21.4,0,71.3,0
5/4/2004 9:30,22.4,0,60.4,0,22.4,0,18.6,0,21.4,0,72.1,0
5/4/2004 9:45,22.5,0,60.3,0,22.5,0,17.3,0,21.5,0,72.8,0
5/4/2004 10:00,22.5,0,60.8,0,22.6,0,17.3,0,21.6,0,72.6,0
5/4/2004 10:15,22.6,0,61.3,0,22.6,0,17.3,0,21.8,0,72.3,0
5/4/2004 10:30,22.7,0,62.2,0,22.7,0,17.2,0,21.9,0,72.1,0
5/4/2004 10:45,22.8,0,61.2,0,22.8,0,17.3,0,22.1,0,71.8,0
5/4/2004 11:00,23,0,61.3,0,22.9,0,17.3,0,22.1,0,72.1,0
5/4/2004 11:15,23.1,0,61.9,0,23,0,17.4,0,22,0,72.3,0
5/4/2004 11:30,23.2,0,62,0,23.1,0,17.5,0,22,0,72.6,0
5/4/2004 11:45,23.2,0,62,0,23.3,0,17.4,0,22,0,72.8,0
5/4/2004 12:00,23.3,0,61.9,0,23.4,0,17.5,0,22.3,0,71.6,0
5/4/2004 12:15,23.4,0,62.9,0,23.6,0,17.5,0,22.7,0,70.3,0
5/4/2004 12:30,23.5,0,63.1,0,23.7,0,17.6,0,23,0,69.1,0
5/4/2004 12:45,23.7,0,63.4,0,23.8,0,17.7,0,23.4,0,67.8,0
5/4/2004 13:00,23.8,0,62.8,0,24,0,17.7,0,23.6,0,67.3,0
5/4/2004 13:15,24,0,62.5,0,24.2,0,17.8,0,23.8,0,66.8,0
5/4/2004 13:30,24.2,0,65.1,0,24.4,0,17.8,0,24,0,66.3,0
5/4/2004 13:45,24.4,0,64.8,0,24.6,0,17.9,0,24.2,0,65.8,0
5/4/2004 14:00,24.6,0,65.4,0,24.8,0,18,0,24.1,0,66.3,0
5/4/2004 14:15,24.7,0,65.3,0,25,0,18,0,24.1,0,66.8,0
5/4/2004 14:30,24.9,0,65.7,0,25.2,0,18.1,0,24,0,67.3,0
5/4/2004 14:45,24.9,0,65.6,0,25.3,0,18.2,0,24,0,67.8,0
5/4/2004 15:00,25,0,65.7,0,25.4,0,18.2,0,23.9,0,68.6,0
5/4/2004 15:15,25.1,0,65.8,0,25.5,0,17.9,0,23.8,0,69.3,0
5/4/2004 15:30,25.1,0,66.2,0,25.5,0,17.9,0,23.7,0,70.1,0
5/4/2004 15:45,25.1,0,66.4,0,25.5,0,18,0,23.6,0,70.8,0
5/4/2004 16:00,25.1,0,66.5,0,25.5,0,18.1,0,23.5,0,71.6,0
5/4/2004 16:15,25.1,0,66.8,0,25.6,0,18.2,0,23.3,0,72.3,0
5/4/2004 16:30,25.3,0,66.5,0,25.6,0,18.2,0,23.2,0,73.1,0
5/4/2004 16:45,25.4,0,66.3,0,25.8,0,18.3,0,23.1,0,73.8,0
5/4/2004 17:00,25.5,0,65.9,0,25.8,0,18.4,0,23.1,0,73.8,0
5/4/2004 17:15,25.5,0,64.9,0,25.8,0,18.4,0,23.1,0,73.8,0
5/4/2004 17:30,25.5,0,64.5,0,25.8,0,18.1,0,23.2,0,73.8,0
5/4/2004 17:45,25.4,0,63.8,0,25.8,0,18.2,0,23.2,0,73.8,0
5/4/2004 18:00,25.4,0,63.5,0,25.8,0,18.2,0,23.1,0,74.8,0
5/4/2004 18:15,25.4,0,63.3,0,25.8,0,18.3,0,23,0,75.8,0
5/4/2004 18:30,25.5,0,64.7,0,25.8,0,18.4,0,22.9,0,76.8,0
5/4/2004 18:45,25.6,0,65.8,0,25.9,0,18.5,0,22.8,0,77.8,0
5/4/2004 19:00,25.6,0,67.2,0,25.9,0,18.5,0,22.4,0,80.3,0
5/4/2004 19:15,25.6,0,65.8,0,25.9,0,18.6,0,22.1,0,82.8,0
5/4/2004 19:30,25.8,0,69,0,25.9,0,18.7,0,21.7,0,85.3,0
5/4/2004 19:45,25.8,0,68,0,25.9,0,18.8,0,21.4,0,87.8,0
5/4/2004 20:00,26,0,67.2,0,25.9,0,18.9,0,21,0,86.1,0
5/4/2004 20:15,26,0,67.3,0,25.9,0,19,0,20.7,0,84.3,0
5/4/2004 20:30,26,0,66.7,0,25.9,0,19,0,20.3,0,82.6,0
5/4/2004 20:45,26,0,66.7,0,25.9,0,19.1,0,20,0,80.8,0
5/4/2004 21:00,26,0,64.5,0,25.8,0,19.2,0,19.9,0,79.3,0
5/4/2004 21:15,26,0,63.4,0,25.8,0,19.3,0,19.8,0,77.8,0
5/4/2004 21:30,25.9,0,63,0,25.8,0,19.4,0,19.8,0,76.3,0
5/4/2004 21:45,25.9,0,62.9,0,25.8,0,19.4,0,19.7,0,74.8,0
5/4/2004 22:00,25.8,0,62.9,0,25.8,0,19.5,0,19.8,0,73.8,0
5/4/2004 22:15,25.8,0,62.8,0,25.8,0,19.6,0,19.9,0,72.8,0
5/4/2004 22:30,25.7,0,62.7,0,25.7,0,19.6,0,20,0,71.8,0
5/4/2004 22:45,25.7,0,63.5,0,25.7,0,19.7,0,20.1,0,70.8,0
5/4/2004 23:00,25.7,0,63.9,0,25.7,0,19.8,0,20,0,71.6,0
5/4/2004 23:15,25.6,0,63.4,0,25.7,0,19.8,0,19.9,0,72.3,0
5/4/2004 23:30,25.6,0,63.4,0,25.7,0,19.9,0,19.8,0,73.1,0
5/4/2004 23:45,25.5,0,63.6,0,25.7,0,20,0,19.7,0,73.8,0
5/5/2004 0:00,25.4,0,63.4,0,25.7,0,20,0,19.3,0,76.3,0
5/5/2004 0:15,25.3,0,63.7,0,25.7,0,20.1,0,18.9,0,78.8,0
5/5/2004 0:30,25.3,0,63.7,0,25.8,0,20.2,0,18.6,0,81.3,0
5/5/2004 0:45,25.2,0,63.5,0,25.7,0,20.2,0,18.2,0,83.8,0
5/5/2004 1:00,25.1,0,63.5,0,25.7,0,20.3,0,17.8,0,83.6,0
5/5/2004 1:15,25.1,0,63.1,0,25.7,0,20.3,0,17.3,0,83.3,0
5/5/2004 1:30,24.9,0,63.2,0,25.6,0,20.4,0,16.9,0,83.1,0
5/5/2004 1:45,24.8,0,62.7,0,25.6,0,20.5,0,16.5,0,82.8,0
5/5/2004 2:00,24.7,0,62,0,25.6,0,20.5,0,16.2,0,82.6,0
5/5/2004 2:15,24.6,0,61.6,0,25.5,0,20.6,0,15.9,0,82.3,0
5/5/2004 2:30,24.6,0,61.7,0,25.4,0,19.1,0,15.7,0,82.1,0
5/5/2004 2:45,24.5,0,61.6,0,25.3,0,19.1,0,15.4,0,81.8,0
5/5/2004 3:00,24.5,0,61.3,0,25.2,0,19.2,0,15.1,0,82.6,0
5/5/2004 3:15,24.4,0,61,0,25.1,0,19.2,0,14.8,0,83.3,0
5/5/2004 3:30,24.4,0,61,0,25,0,19.3,0,14.6,0,84.1,0
5/5/2004 3:45,24.3,0,60.6,0,24.9,0,19.4,0,14.3,0,84.8,0
5/5/2004 4:00,24.2,0,60.2,0,24.8,0,19.4,0,14,0,85.1,0
5/5/2004 4:15,24.2,0,59.7,0,24.7,0,19.5,0,13.7,0,85.3,0
5/5/2004 4:30,24.1,0,59.6,0,24.6,0,19.5,0,13.5,0,85.6,0
5/5/2004 4:45,24,0,59.3,0,24.6,0,19.6,0,13.2,0,85.8,0
5/5/2004 5:00,23.9,0,59,0,24.5,0,19.6,0,13.1,0,86.1,0
5/5/2004 5:15,23.8,0,58.7,0,24.3,0,19.6,0,13,0,86.3,0
5/5/2004 5:30,23.8,0,58.5,0,24.2,0,19.7,0,12.9,0,86.6,0
5/5/2004 5:45,23.7,0,58.3,0,24.1,0,19.7,0,12.8,0,86.8,0
5/5/2004 6:00,23.6,0,58.1,0,24,0,18.8,0,12.7,0,86.8,0
5/5/2004 6:15,23.5,0,57.9,0,24,0,18.8,0,12.5,0,86.8,0
5/5/2004 6:30,23.4,0,58.2,0,23.9,0,18,0,12.4,0,86.8,0
5/5/2004 6:45,23.3,0,57.4,0,23.8,0,18.1,0,12.3,0,86.8,0
5/5/2004 7:00,23.3,0,57.7,0,23.7,0,18.1,0,12.2,0,86.3,0
5/5/2004 7:15,23.2,0,57.2,0,23.6,0,18.2,0,12.1,0,85.8,0
5/5/2004 7:30,23.1,0,57.5,0,23.5,0,18.2,0,12.1,0,85.3,0
5/5/2004 7:45,23,0,57.1,0,23.4,0,18.3,0,12,0,84.8,0
5/5/2004 8:00,23,0,57.6,0,23.3,0,18.1,0,12,0,84.6,0
5/5/2004 8:15,22.9,0,57.8,0,23.1,0,18.1,0,11.9,0,84.3,0
5/5/2004 8:30,22.9,0,58.8,0,23,0,17.9,0,11.9,0,84.1,0
5/5/2004 8:45,22.8,0,58.7,0,22.9,0,18,0,11.9,0,83.8,0
5/5/2004 9:00,22.9,0,58.8,0,22.8,0,18,0,12,0,82.6,0